Location: Gleizolles
(44.4833°N, 6.7667°E)
Time: 00:45:21
(UTC+00:00)

Courier 1B Rocket - Pass Details

Date: 29 June 2024
Orbit: 920 x 1201 km, 28.3° (Epoch: 23 July)

Event Time Altitude Azimuth Distance (km) Brightness Sun altitude
Exits shadow 02:33:21 14° 212° (SSW) 2,414 6.4 -11.2°
Maximum altitude 02:35:35 16° 189° (S) 2,286 6.5 -10.9°
Drops below altitude 10° 02:39:33 10° 152° (SSE) 2,782 7.2 -10.4°
Sets 02:43:24 0° 133° (SE) 3,793 8.1 -10.0°
